Location: Kelshall
(52.0000°N, 0.0500°W)
Time: 04:10:25
(UTC+00:00)

CENTAUR R/B - Pass Details

Date: 18 September 2020
Orbit: 755 x 1433 km, 63.4° (Epoch: 02 October)

Event Time Altitude Azimuth Distance (km) Brightness Sun altitude
Rises 19:21:35 0° 311° (NW) 4,008 7.1 -12.1°
Reaches altitude 10° 19:24:11 10° 314° (NW) 3,135 6.2 -12.5°
Maximum altitude 19:31:54 68° 38° (NE) 1,417 3.2 -13.6°
Enters shadow 19:38:32 19° 118° (ESE) 2,858 4.3 -14.5°
